Location: Gerlach
(40.6516°N, 119.3568°W)
Time: 05:35:11
(UTC-07:00)

Explorer 11/Cluster Stage 4 - Pass Details

Date: 07 February 2023
Orbit: 466 x 1241 km, 28.8° (Epoch: 02 April)

Event Time Altitude Azimuth Distance (km) Brightness Sun altitude
Exits shadow 02:46:58 12° 117° (ESE) 2,915 9.7 -47.9°
Drops below altitude 10° 02:47:35 10° 113° (ESE) 3,064 9.9 -47.8°
Sets 02:51:22 0° 99° (E) 4,109 10.8 -47.1°
